Weather History for KMKE - April, 2013

Change the Weather History Date:

Thursday, April 4, 2013

  Actual Average Record
Temperature  
Mean Temperature 43 °F 42 °F  
Max Temperature 58 °F 49 °F 79 °F (1997)
Min Temperature 28 °F 34 °F 14 °F (1874)
Degree Days  
Heating Degree Days 22 24  
Month to date heating degree days 119 97  
Since 1 July heating degree days 5919 6006  
Cooling Degree Days 0 0  
Month to date cooling degree days 0 0  
Year to date cooling degree days 0 0  
Moisture  
Dew Point 23 °F    
Average Humidity 47    
Maximum Humidity 63    
Minimum Humidity 30    
Precipitation  
Precipitation 0.00 in 0.11 in 0.82 in (1911)
Month to date precipitation 0.00 0.45  
Year to date precipitation 7.83 6.13  
Snow  
Snow 0.00 in 0.10 in 1.50 in (1936)
Month to date snowfall 0.0 0.5  
Since 1 July snowfall 44.6 45.3  
Snow Depth 0.00 in    
Sea Level Pressure  
Sea Level Pressure 30.11 in    
Wind  
Wind Speed 11 mph (WSW)    
Max Wind Speed 22 mph    
Max Gust Speed 28 mph    
Visibility 10 miles    
Events      
T = Trace of Precipitation, MM = Missing Value Source: NWS Daily Summary

Daily Weather History Graph

Daily Weather History Graph

Search for Another Location

Airport or City:

Trip Planner

Search our weather history database for the weather conditions in past years. The results will help you decide how hot, cold, wet, or windy it might be!

Date:

Astronomy

Apr. 04, 2013 Rise Set
Actual Time 6:28 AM CDT 7:21 PM CDT
Civil Twilight 5:59 AM CDT 7:50 PM CDT
Nautical Twilight 5:25 AM CDT 8:24 PM CDT
Astronomical Twilight 4:49 AM CDT 9:00 PM CDT
Moon 3:03 AM CDT (4/4) 1:31 PM CDT (4/4)
Length of Visible Light 13h 51m
Length of Day
12h 53m
Waning Crescent, 33% of the Moon is Illuminated
Apr 4
Waning Crescent
Apr 10
New
Apr 18
First Quarter
Apr 25
Full
May 2
Last Quarter

Hourly Weather History & Observations

Time (CDT) Temp. Windchill Dew Point Humidity Pressure Visibility Wind Dir Wind Speed Gust Speed Precip Events Conditions
12:52 AM 28.9 °F 22.8 °F 18.0 °F 64% 30.31 in 10.0 mi SSW 5.8 mph - N/A   Clear
1:52 AM 28.9 °F 21.9 °F 16.0 °F 58% 30.29 in 10.0 mi SSW 6.9 mph - N/A   Clear
2:52 AM 28.9 °F 20.4 °F 14.0 °F 54% 30.26 in 10.0 mi SSW 9.2 mph - N/A   Clear
3:52 AM 28.9 °F 20.4 °F 15.1 °F 56% 30.24 in 8.0 mi SSW 9.2 mph - N/A   Clear
4:52 AM 28.9 °F 20.4 °F 16.0 °F 58% 30.22 in 10.0 mi SSW 9.2 mph - N/A   Clear
5:52 AM 28.9 °F 20.4 °F 17.1 °F 61% 30.22 in 10.0 mi SSW 9.2 mph - N/A   Partly Cloudy
6:52 AM 30.0 °F 21.7 °F 17.1 °F 59% 30.22 in 10.0 mi SW 9.2 mph - N/A   Scattered Clouds
7:52 AM 34.0 °F 25.0 °F 18.0 °F 52% 30.20 in 10.0 mi SW 12.7 mph - N/A   Partly Cloudy
8:52 AM 39.9 °F 33.4 °F 19.9 °F 45% 30.17 in 10.0 mi SW 10.4 mph 18.4 mph N/A   Partly Cloudy
9:52 AM 44.1 °F 37.1 °F 19.9 °F 38% 30.15 in 10.0 mi SW 15.0 mph 23.0 mph N/A   Partly Cloudy
10:52 AM 48.0 °F - 19.0 °F 32% 30.13 in 10.0 mi WSW 15.0 mph 25.3 mph N/A   Partly Cloudy
11:52 AM 50.0 °F - 21.0 °F 32% 30.10 in 10.0 mi WSW 12.7 mph 26.5 mph N/A   Partly Cloudy
12:52 PM 52.0 °F - 21.9 °F 31% 30.07 in 10.0 mi WSW 13.8 mph 24.2 mph N/A   Partly Cloudy
1:52 PM 54.0 °F - 25.0 °F 33% 30.04 in 10.0 mi SW 12.7 mph - N/A   Partly Cloudy
2:52 PM 55.9 °F - 27.0 °F 33% 29.99 in 10.0 mi SW 15.0 mph - N/A   Partly Cloudy
3:52 PM 57.0 °F - 28.0 °F 33% 29.98 in 10.0 mi WSW 16.1 mph 25.3 mph N/A   Partly Cloudy
4:52 PM 57.0 °F - 28.9 °F 34% 29.96 in 10.0 mi WSW 13.8 mph - N/A   Mostly Cloudy
5:52 PM 57.0 °F - 30.0 °F 36% 29.97 in 10.0 mi WNW 9.2 mph - N/A   Mostly Cloudy
6:52 PM 55.9 °F - 30.9 °F 39% 29.97 in 10.0 mi West 10.4 mph - N/A   Scattered Clouds
7:52 PM 54.0 °F - 30.9 °F 41% 29.97 in 10.0 mi WNW 5.8 mph - N/A   Scattered Clouds
8:52 PM 50.0 °F - 33.1 °F 52% 30.00 in 10.0 mi NW 8.1 mph - N/A   Clear
9:52 PM 46.9 °F - 30.0 °F 52% 30.01 in 10.0 mi NNW 9.2 mph - N/A   Clear
10:52 PM 46.0 °F 41.0 °F 27.0 °F 47% 30.02 in 10.0 mi NW 10.4 mph - N/A   Scattered Clouds
11:52 PM 45.0 °F 40.1 °F 27.0 °F 49% 30.02 in 10.0 mi NW 9.2 mph - N/A   Partly Cloudy